Time,TemperatureF,DewpointF,PressureIn,WindDirection,WindDirectionDegrees,WindSpeedMPH,WindSpeedGustMPH,Humidity,HourlyPrecipIn,Conditions,Clouds,dailyrainin,SolarRadiationWatts/m^2,SoftwareType,DateUTC
2013-04-24 00:01:00,51.0,41.6,30.21,WSW,242,6.0,6.0,70,0.00,RA,,0.00,0.0,WeatherDisplay:10.37,2013-04-23 22:01:00,
2013-04-24 00:06:00,50.7,41.6,30.21,WSW,246,6.0,6.0,71,0.00,RA,,0.00,0.0,WeatherDisplay:10.37,2013-04-23 22:06:00,
2013-04-24 00:11:00,50.5,41.4,30.21,WSW,242,6.0,6.0,71,0.00,CLR,,0.00,0.0,WeatherDisplay:10.37,2013-04-23 22:11:00,
2013-04-24 00:16:00,50.2,41.5,30.22,WSW,241,6.0,6.0,72,0.00,CLR,,0.00,0.0,WeatherDisplay:10.37,2013-04-23 22:16:00,
2013-04-24 00:21:00,49.9,41.6,30.22,WSW,244,6.0,6.0,73,0.00,CLR,,0.00,0.0,WeatherDisplay:10.37,2013-04-23 22:21:00,
2013-04-24 00:26:00,49.6,41.7,30.22,SW,234,7.0,7.0,74,0.00,CLR,,0.00,0.0,WeatherDisplay:10.37,2013-04-23 22:26:00,
2013-04-24 00:31:00,49.3,41.4,30.22,WSW,245,5.8,5.8,74,0.00,CLR,,0.00,0.0,WeatherDisplay:10.37,2013-04-23 22:31:00,
2013-04-24 00:36:00,49.1,41.5,30.22,WSW,244,7.0,7.0,75,0.00,CLR,,0.00,0.0,WeatherDisplay:10.37,2013-04-23 22:36:00,
2013-04-24 00:41:00,48.8,41.2,30.22,WSW,241,6.0,6.0,75,0.00,CLR,,0.00,0.0,WeatherDisplay:10.37,2013-04-23 22:41:00,
2013-04-24 00:46:00,48.6,41.4,30.23,WSW,242,6.9,6.9,76,0.00,CLR,,0.00,0.0,WeatherDisplay:10.37,2013-04-23 22:46:00,
2013-04-24 00:51:00,48.5,41.3,30.23,WSW,242,6.9,6.9,76,0.00,CLR,,0.00,0.0,WeatherDisplay:10.37,2013-04-23 22:51:00,
2013-04-24 00:56:00,48.3,41.1,30.23,WSW,238,6.9,6.9,76,0.00,CLR,,0.00,0.0,WeatherDisplay:10.37,2013-04-23 22:56:00,
2013-04-24 01:01:00,48.2,40.6,30.23,WSW,238,5.8,5.8,75,0.00,CLR,,0.00,0.0,WeatherDisplay:10.37,2013-04-23 23:01:00,
2013-04-24 01:06:00,48.2,40.6,30.23,WSW,242,6.9,6.9,75,0.00,CLR,,0.00,0.0,WeatherDisplay:10.37,2013-04-23 23:06:00,
2013-04-24 01:11:00,48.4,40.5,30.23,WSW,238,6.0,6.0,74,0.00,CLR,,0.00,0.0,WeatherDisplay:10.37,2013-04-23 23:11:00,
2013-04-24 01:16:00,48.7,40.4,30.23,WSW,240,6.9,6.9,73,0.00,CLR,,0.00,0.0,WeatherDisplay:10.37,2013-04-23 23:16:00,
2013-04-24 01:23:00,49.1,40.1,30.23,SW,234,5.8,5.8,71,0.00,CLR,,0.00,0.0,WeatherDisplay:10.37,2013-04-23 23:23:00,
2013-04-24 01:28:00,49.3,40.3,30.23,SW,232,5.0,5.0,71,0.00,CLR,,0.00,0.0,WeatherDisplay:10.37,2013-04-23 23:28:00,
2013-04-24 01:33:00,49.4,40.4,30.23,WSW,246,4.6,4.6,71,0.00,CLR,,0.00,0.0,WeatherDisplay:10.37,2013-04-23 23:33:00,
2013-04-24 01:38:00,49.4,40.7,30.23,WSW,249,5.8,5.8,72,0.00,CLR,,0.00,0.0,WeatherDisplay:10.37,2013-04-23 23:38:00,
2013-04-24 01:43:00,49.3,40.7,30.23,WSW,249,3.5,3.5,72,0.00,CLR,,0.00,0.0,WeatherDisplay:10.37,2013-04-23 23:43:00,
2013-04-24 01:48:00,49.1,40.8,30.24,WSW,249,2.3,2.3,73,0.00,CLR,,0.00,0.0,WeatherDisplay:10.37,2013-04-23 23:48:00,
2013-04-24 01:53:00,48.9,40.6,30.24,WSW,249,1.2,1.2,73,0.00,CLR,,0.00,0.0,WeatherDisplay:10.37,2013-04-23 23:53:00,
2013-04-24 01:58:00,48.6,40.7,30.24,WSW,249,1.2,1.2,74,0.00,CLR,,0.00,0.0,WeatherDisplay:10.37,2013-04-23 23:58:00,
2013-04-24 02:03:00,48.3,40.4,30.24,WSW,249,1.2,1.2,74,0.00,CLR,,0.00,0.0,WeatherDisplay:10.37,2013-04-24 00:03:00,
2013-04-24 02:08:00,48.1,40.2,30.24,WSW,249,1.2,0.0,74,0.00,CLR,,0.00,0.0,WeatherDisplay:10.37,2013-04-24 00:08:00,
2013-04-24 02:13:00,47.8,40.3,30.24,WSW,249,0.0,0.0,75,0.00,CLR,,0.00,0.0,WeatherDisplay:10.37,2013-04-24 00:13:00,
2013-04-24 02:18:00,47.6,40.1,30.24,WSW,249,0.0,0.0,75,0.00,CLR,,0.00,0.0,WeatherDisplay:10.37,2013-04-24 00:18:00,
2013-04-24 02:23:00,47.4,40.2,30.24,WSW,249,0.0,0.0,76,0.00,CLR,,0.00,0.0,WeatherDisplay:10.37,2013-04-24 00:23:00,
2013-04-24 02:28:00,47.2,40.4,30.24,WSW,249,0.0,0.0,77,0.00,CLR,,0.00,0.0,WeatherDisplay:10.37,2013-04-24 00:28:00,
2013-04-24 02:33:00,46.9,40.4,30.24,WSW,249,0.0,0.0,78,0.00,CLR,,0.00,0.0,WeatherDisplay:10.37,2013-04-24 00:33:00,
2013-04-24 02:38:00,46.7,40.2,30.24,WSW,249,0.0,0.0,78,0.00,CLR,,0.00,0.0,WeatherDisplay:10.37,2013-04-24 00:38:00,
2013-04-24 02:43:00,46.5,40.0,30.25,WSW,249,1.2,0.0,78,0.00,CLR,,0.00,0.0,WeatherDisplay:10.37,2013-04-24 00:43:00,
2013-04-24 02:48:00,46.3,40.1,30.25,WSW,249,0.0,0.0,79,0.00,CLR,,0.00,0.0,WeatherDisplay:10.37,2013-04-24 00:48:00,
2013-04-24 02:53:00,46.2,40.0,30.25,WSW,249,1.2,0.0,79,0.00,CLR,,0.00,0.0,WeatherDisplay:10.37,2013-04-24 00:53:00,
2013-04-24 02:58:00,46.0,39.9,30.25,WSW,249,1.2,1.2,79,0.00,CLR,,0.00,0.0,WeatherDisplay:10.37,2013-04-24 00:58:00,
2013-04-24 03:03:00,45.8,39.7,30.25,WSW,249,1.2,1.2,79,0.00,CLR,,0.00,0.0,WeatherDisplay:10.37,2013-04-24 01:03:00,
2013-04-24 03:08:00,45.7,39.6,30.25,WSW,249,0.0,0.0,79,0.00,CLR,,0.00,0.0,WeatherDisplay:10.37,2013-04-24 01:08:00,
2013-04-24 03:13:00,45.5,39.4,30.25,WSW,249,0.0,0.0,79,0.00,CLR,,0.00,0.0,WeatherDisplay:10.37,2013-04-24 01:13:00,
2013-04-24 03:18:00,45.4,39.6,30.25,WSW,249,0.0,0.0,80,0.00,CLR,,0.00,0.0,WeatherDisplay:10.37,2013-04-24 01:18:00,
2013-04-24 03:23:00,45.3,39.5,30.26,WSW,249,3.5,3.5,80,0.00,CLR,,0.00,0.0,WeatherDisplay:10.37,2013-04-24 01:23:00,
2013-04-24 03:28:00,45.1,39.0,30.26,WSW,249,0.0,0.0,79,0.00,CLR,,0.00,0.0,WeatherDisplay:10.37,2013-04-24 01:28:00,
2013-04-24 03:33:00,44.9,39.1,30.26,WSW,249,0.0,0.0,80,0.00,CLR,,0.00,0.0,WeatherDisplay:10.37,2013-04-24 01:33:00,
2013-04-24 03:38:00,44.8,39.0,30.26,WSW,249,0.0,0.0,80,0.00,CLR,,0.00,0.0,WeatherDisplay:10.37,2013-04-24 01:38:00,
2013-04-24 03:43:00,44.7,38.9,30.26,WSW,249,0.0,0.0,80,0.00,CLR,,0.00,0.0,WeatherDisplay:10.37,2013-04-24 01:43:00,
2013-04-24 03:48:00,44.4,38.9,30.26,WSW,249,0.0,0.0,81,0.00,CLR,,0.00,0.0,WeatherDisplay:10.37,2013-04-24 01:48:00,
2013-04-24 03:53:00,44.2,38.7,30.26,WSW,249,1.0,1.0,81,0.00,CLR,,0.00,0.0,WeatherDisplay:10.37,2013-04-24 01:53:00,
2013-04-24 03:59:00,44.1,38.6,30.27,WSW,249,2.3,2.3,81,0.00,CLR,,0.00,0.0,WeatherDisplay:10.37,2013-04-24 01:59:00,
2013-04-24 04:04:00,44.1,38.3,30.26,WSW,249,0.0,0.0,80,0.00,CLR,,0.00,0.0,WeatherDisplay:10.37,2013-04-24 02:04:00,
2013-04-24 04:09:00,44.0,38.5,30.26,WSW,249,0.0,0.0,81,0.00,CLR,,0.00,0.0,WeatherDisplay:10.37,2013-04-24 02:09:00,
2013-04-24 04:15:00,43.9,38.4,30.26,WSW,249,2.3,2.3,81,0.00,CLR,,0.00,0.0,WeatherDisplay:10.37,2013-04-24 02:15:00,
2013-04-24 04:20:00,43.8,38.3,30.27,WSW,249,2.3,2.3,81,0.00,CLR,,0.00,0.0,WeatherDisplay:10.37,2013-04-24 02:20:00,
2013-04-24 04:25:00,43.7,38.3,30.27,WSW,249,3.5,3.5,81,0.00,CLR,,0.00,0.0,WeatherDisplay:10.37,2013-04-24 02:25:00,
2013-04-24 04:30:00,43.6,38.2,30.27,WSW,249,1.2,1.2,81,0.00,CLR,,0.00,0.0,WeatherDisplay:10.37,2013-04-24 02:30:00,
2013-04-24 04:35:00,43.5,38.1,30.27,WSW,249,0.0,0.0,81,0.00,CLR,,0.00,0.0,WeatherDisplay:10.37,2013-04-24 02:35:00,
2013-04-24 04:40:00,43.4,38.3,30.27,WSW,249,2.3,2.3,82,0.00,CLR,,0.00,0.0,WeatherDisplay:10.37,2013-04-24 02:40:00,
2013-04-24 04:45:00,43.3,38.2,30.28,WSW,249,2.3,2.3,82,0.00,CLR,,0.00,0.0,WeatherDisplay:10.37,2013-04-24 02:45:00,
2013-04-24 04:50:00,43.2,38.1,30.28,WSW,249,0.0,0.0,82,0.00,CLR,,0.00,0.0,WeatherDisplay:10.37,2013-04-24 02:50:00,
2013-04-24 04:55:00,43.1,38.0,30.28,WSW,249,3.5,3.5,82,0.00,CLR,,0.00,0.0,WeatherDisplay:10.37,2013-04-24 02:55:00,
2013-04-24 05:00:00,43.0,37.9,30.28,WSW,249,3.5,3.5,82,0.00,CLR,,0.00,0.0,WeatherDisplay:10.37,2013-04-24 03:00:00,
2013-04-24 05:05:00,43.0,37.9,30.28,WSW,249,3.5,3.5,82,0.00,CLR,,0.00,0.0,WeatherDisplay:10.37,2013-04-24 03:05:00,
2013-04-24 05:10:00,42.9,37.8,30.28,WSW,249,4.0,4.0,82,0.00,CLR,,0.00,0.0,WeatherDisplay:10.37,2013-04-24 03:10:00,
2013-04-24 05:16:00,42.8,37.7,30.28,WSW,238,4.0,4.0,82,0.00,CLR,,0.00,0.0,WeatherDisplay:10.37,2013-04-24 03:16:00,
2013-04-24 05:21:00,42.6,37.5,30.28,WSW,238,4.0,4.0,82,0.00,CLR,,0.00,0.0,WeatherDisplay:10.37,2013-04-24 03:21:00,
2013-04-24 05:26:00,42.6,37.5,30.28,WSW,237,4.6,4.6,82,0.00,OVC,,0.00,0.0,WeatherDisplay:10.37,2013-04-24 03:26:00,
2013-04-24 05:31:00,42.6,37.8,30.28,WSW,237,6.0,6.0,83,0.00,OVC,,0.00,0.0,WeatherDisplay:10.37,2013-04-24 03:31:00,
2013-04-24 05:36:00,42.6,37.8,30.28,WSW,237,4.0,4.0,83,0.00,OVC,,0.00,0.0,WeatherDisplay:10.37,2013-04-24 03:36:00,
2013-04-24 05:41:00,42.6,37.8,30.29,WSW,237,4.0,4.0,83,0.00,OVC,,0.00,0.0,WeatherDisplay:10.37,2013-04-24 03:41:00,
2013-04-24 05:46:00,42.6,37.8,30.29,WSW,237,3.0,3.0,83,0.00,OVC,,0.00,0.0,WeatherDisplay:10.37,2013-04-24 03:46:00,
2013-04-24 05:51:00,42.6,37.8,30.29,WSW,237,2.3,2.3,83,0.00,OVC,,0.00,0.0,WeatherDisplay:10.37,2013-04-24 03:51:00,
2013-04-24 05:56:00,42.6,37.8,30.29,WSW,237,1.2,1.2,83,0.00,SCT,,0.00,5.0,WeatherDisplay:10.37,2013-04-24 03:56:00,
2013-04-24 06:01:00,42.7,37.9,30.29,WSW,237,3.5,0.0,83,0.00,BKN,,0.00,9.0,WeatherDisplay:10.37,2013-04-24 04:01:00,
2013-04-24 06:02:00,42.7,37.9,30.29,WSW,237,1.2,1.2,83,0.00,BKN,,0.00,11.0,WeatherDisplay:10.37,2013-04-24 04:02:00,
2013-04-24 06:03:00,42.7,37.9,30.29,WSW,237,1.2,1.2,83,0.00,BKN,,0.00,11.0,WeatherDisplay:10.37,2013-04-24 04:03:00,
2013-04-24 06:04:00,42.7,37.9,30.29,WSW,237,1.2,0.0,83,0.00,BKN,,0.00,11.0,WeatherDisplay:10.37,2013-04-24 04:04:00,
2013-04-24 06:09:00,42.6,37.8,30.29,WSW,237,2.3,2.3,83,0.00,BKN,,0.00,16.0,WeatherDisplay:10.37,2013-04-24 04:09:00,
2013-04-24 06:12:00,42.7,37.9,30.29,WSW,237,2.3,2.3,83,0.00,BKN,,0.00,19.0,WeatherDisplay:10.37,2013-04-24 04:12:00,
2013-04-24 06:17:00,42.7,37.9,30.29,WSW,237,0.0,0.0,83,0.00,BKN,,0.00,23.0,WeatherDisplay:10.37,2013-04-24 04:17:00,
2013-04-24 06:22:00,42.7,37.9,30.30,WSW,237,0.0,0.0,83,0.00,BKN,,0.00,26.0,WeatherDisplay:10.37,2013-04-24 04:22:00,
2013-04-24 06:27:00,42.6,37.8,30.30,WSW,237,0.0,0.0,83,0.00,BKN,,0.00,35.0,WeatherDisplay:10.37,2013-04-24 04:27:00,
2013-04-24 06:32:00,42.6,37.8,30.30,WSW,237,0.0,0.0,83,0.00,BKN,,0.00,46.0,WeatherDisplay:10.37,2013-04-24 04:32:00,
2013-04-24 06:37:00,42.6,37.8,30.30,WSW,237,0.0,0.0,83,0.00,BKN,,0.00,49.0,WeatherDisplay:10.37,2013-04-24 04:37:00,
2013-04-24 06:42:00,42.6,37.8,30.30,WSW,237,0.0,0.0,83,0.00,BKN,,0.00,54.0,WeatherDisplay:10.37,2013-04-24 04:42:00,
2013-04-24 06:47:00,42.7,37.9,30.30,WSW,237,0.0,0.0,83,0.00,BKN,,0.00,56.0,WeatherDisplay:10.37,2013-04-24 04:47:00,
2013-04-24 06:52:00,42.8,38.0,30.30,WSW,237,0.0,0.0,83,0.00,BKN,,0.00,63.0,WeatherDisplay:10.37,2013-04-24 04:52:00,
2013-04-24 06:57:00,43.0,38.2,30.30,WSW,237,0.0,0.0,83,0.00,BKN,,0.00,70.0,WeatherDisplay:10.37,2013-04-24 04:57:00,
2013-04-24 07:02:00,43.3,38.5,30.30,WSW,237,2.3,2.3,83,0.00,BKN,,0.00,76.0,WeatherDisplay:10.37,2013-04-24 05:02:00,
2013-04-24 07:07:00,43.6,38.8,30.30,WSW,237,2.3,2.3,83,0.00,BKN,,0.00,77.0,WeatherDisplay:10.37,2013-04-24 05:07:00,
2013-04-24 07:12:00,44.0,39.2,30.30,WSW,237,2.3,2.3,83,0.00,BKN,,0.00,98.0,WeatherDisplay:10.37,2013-04-24 05:12:00,
2013-04-24 07:17:00,44.4,39.6,30.30,WSW,237,2.3,2.3,83,0.00,BKN,,0.00,95.0,WeatherDisplay:10.37,2013-04-24 05:17:00,
2013-04-24 07:22:00,44.8,40.0,30.31,WSW,237,1.2,1.2,83,0.00,BKN,,0.00,95.0,WeatherDisplay:10.37,2013-04-24 05:22:00,
2013-04-24 07:27:00,45.3,40.4,30.31,WSW,237,1.2,1.2,83,0.00,BKN,,0.00,105.0,WeatherDisplay:10.37,2013-04-24 05:27:00,
2013-04-24 07:32:00,45.8,40.9,30.31,WSW,237,2.3,2.3,83,0.00,BKN,,0.00,118.0,WeatherDisplay:10.37,2013-04-24 05:32:00,
2013-04-24 07:37:00,46.5,41.6,30.31,WSW,237,2.3,2.3,83,0.00,BKN,,0.00,130.0,WeatherDisplay:10.37,2013-04-24 05:37:00,
2013-04-24 07:42:00,47.1,42.2,30.31,WSW,250,2.3,2.3,83,0.00,BKN,,0.00,153.0,WeatherDisplay:10.37,2013-04-24 05:42:00,
2013-04-24 07:47:00,47.7,42.5,30.31,WSW,250,0.0,0.0,82,0.00,SCT,,0.00,186.0,WeatherDisplay:10.37,2013-04-24 05:47:00,
2013-04-24 07:52:00,48.5,43.3,30.32,WSW,250,0.0,0.0,82,0.00,SCT,,0.00,232.0,WeatherDisplay:10.37,2013-04-24 05:52:00,
2013-04-24 07:57:00,49.4,44.1,30.32,WSW,250,2.3,2.3,82,0.00,SCT,,0.00,188.0,WeatherDisplay:10.37,2013-04-24 05:57:00,
2013-04-24 08:02:00,50.3,45.0,30.32,WSW,250,2.3,2.3,82,0.00,SCT,,0.00,200.0,WeatherDisplay:10.37,2013-04-24 06:02:00,
2013-04-24 08:07:00,50.8,45.2,30.32,WSW,250,1.0,0.0,81,0.00,SCT,,0.00,244.0,WeatherDisplay:10.37,2013-04-24 06:07:00,
2013-04-24 08:12:00,51.3,45.3,30.32,WSW,250,0.0,0.0,80,0.00,BKN,,0.00,174.0,WeatherDisplay:10.37,2013-04-24 06:12:00,
2013-04-24 08:17:00,51.7,45.7,30.32,WSW,250,0.0,0.0,80,0.00,SCT,,0.00,230.0,WeatherDisplay:10.37,2013-04-24 06:17:00,
2013-04-24 08:22:00,52.2,45.9,30.32,WSW,250,1.2,1.2,79,0.00,SCT,,0.00,251.0,WeatherDisplay:10.37,2013-04-24 06:22:00,
2013-04-24 08:27:00,52.6,45.9,30.33,WSW,250,1.0,1.0,78,0.00,SCT,,0.00,251.0,WeatherDisplay:10.37,2013-04-24 06:27:00,
2013-04-24 08:32:00,53.2,46.5,30.32,WSW,250,0.0,0.0,78,0.00,SCT,,0.00,323.0,WeatherDisplay:10.37,2013-04-24 06:32:00,
2013-04-24 08:37:00,53.8,47.1,30.33,WSW,250,3.0,3.0,78,0.00,FEW,,0.00,359.0,WeatherDisplay:10.37,2013-04-24 06:37:00,
2013-04-24 08:42:00,54.4,46.6,30.33,WSW,250,3.5,3.5,75,0.00,SCT,,0.00,292.0,WeatherDisplay:10.37,2013-04-24 06:42:00,
2013-04-24 08:47:00,55.0,46.5,30.33,WSW,250,2.3,2.3,73,0.00,SCT,,0.00,348.0,WeatherDisplay:10.37,2013-04-24 06:47:00,
2013-04-24 08:52:00,55.6,47.1,30.32,WSW,250,1.2,1.2,73,0.00,FEW,,0.00,394.0,WeatherDisplay:10.37,2013-04-24 06:52:00,
2013-04-24 08:57:00,56.4,47.1,30.32,WSW,250,1.2,1.2,71,0.00,FEW,,0.00,415.0,WeatherDisplay:10.37,2013-04-24 06:57:00,
2013-04-24 09:02:00,57.4,46.5,30.32,WSW,250,1.2,0.0,67,0.00,FEW,,0.00,432.0,WeatherDisplay:10.37,2013-04-24 07:02:00,
2013-04-24 09:07:00,57.9,47.0,30.32,WSW,250,1.2,1.2,67,0.00,FEW,,0.00,457.0,WeatherDisplay:10.37,2013-04-24 07:07:00,
2013-04-24 09:12:00,59.0,48.8,30.32,WSW,250,2.3,2.3,69,0.00,FEW,,0.00,468.0,WeatherDisplay:10.37,2013-04-24 07:12:00,
2013-04-24 09:17:00,59.6,46.1,30.32,WSW,250,2.3,2.3,61,0.00,FEW,,0.00,513.0,WeatherDisplay:10.37,2013-04-24 07:17:00,
2013-04-24 09:22:00,59.7,46.7,30.32,WSW,250,1.2,1.2,62,0.00,FEW,,0.00,459.0,WeatherDisplay:10.37,2013-04-24 07:22:00,
2013-04-24 09:27:00,60.4,47.3,30.32,WSW,250,0.0,0.0,62,0.00,FEW,,0.00,455.0,WeatherDisplay:10.37,2013-04-24 07:27:00,
2013-04-24 09:32:00,60.6,47.9,30.32,WSW,250,3.0,3.0,63,0.00,SCT,,0.00,448.0,WeatherDisplay:10.37,2013-04-24 07:32:00,
2013-04-24 09:37:00,60.2,47.6,30.32,WSW,250,2.3,2.3,63,0.00,SCT,,0.00,436.0,WeatherDisplay:10.37,2013-04-24 07:37:00,
2013-04-24 09:42:00,60.2,48.8,30.32,WSW,250,3.5,3.5,66,0.00,SCT,,0.00,483.0,WeatherDisplay:10.37,2013-04-24 07:42:00,
2013-04-24 09:47:00,59.8,48.8,30.32,WSW,250,2.3,2.3,67,0.00,FEW,,0.00,538.0,WeatherDisplay:10.37,2013-04-24 07:47:00,
2013-04-24 09:52:00,60.6,48.4,30.32,WSW,250,2.3,2.3,64,0.00,FEW,,0.00,545.0,WeatherDisplay:10.37,2013-04-24 07:52:00,
2013-04-24 09:57:00,61.7,48.5,30.32,SSE,161,2.3,2.3,62,0.00,FEW,,0.00,570.0,WeatherDisplay:10.37,2013-04-24 07:57:00,
2013-04-24 10:02:00,62.0,48.4,30.33,SSE,161,4.0,4.0,61,0.00,FEW,,0.00,601.0,WeatherDisplay:10.37,2013-04-24 08:02:00,
2013-04-24 10:07:00,62.8,48.7,30.32,East,82,4.0,4.0,60,0.00,FEW,,0.00,524.0,WeatherDisplay:10.37,2013-04-24 08:07:00,
2013-04-24 10:12:00,61.9,48.3,30.32,ENE,65,2.3,2.3,61,0.00,SCT,,0.00,489.0,WeatherDisplay:10.37,2013-04-24 08:12:00,
2013-04-24 10:17:00,61.7,48.1,30.33,ESE,118,3.5,3.5,61,0.00,SCT,,0.00,499.0,WeatherDisplay:10.37,2013-04-24 08:17:00,
2013-04-24 10:22:00,61.5,47.9,30.33,ESE,118,2.3,2.3,61,0.00,SCT,,0.00,548.0,WeatherDisplay:10.37,2013-04-24 08:22:00,
2013-04-24 10:27:00,61.3,49.0,30.33,ESE,118,3.5,3.5,64,0.00,FEW,,0.00,601.0,WeatherDisplay:10.37,2013-04-24 08:27:00,
2013-04-24 10:32:00,62.1,47.6,30.33,ESE,118,2.3,2.3,59,0.00,FEW,,0.00,617.0,WeatherDisplay:10.37,2013-04-24 08:32:00,
2013-04-24 10:37:00,63.1,49.4,30.33,ESE,109,5.0,5.0,61,0.00,FEW,,0.00,684.0,WeatherDisplay:10.37,2013-04-24 08:37:00,
2013-04-24 10:42:00,63.0,49.3,30.33,East,85,4.6,4.6,61,0.00,FEW,,0.00,631.0,WeatherDisplay:10.37,2013-04-24 08:42:00,
2013-04-24 10:47:00,62.6,48.1,30.33,East,86,4.6,4.6,59,0.00,SCT,,0.00,566.0,WeatherDisplay:10.37,2013-04-24 08:47:00,
2013-04-24 10:52:00,63.0,50.2,30.33,ESE,108,2.3,2.3,63,0.00,SCT,,0.00,568.0,WeatherDisplay:10.37,2013-04-24 08:52:00,
2013-04-24 10:57:00,63.2,49.5,30.33,ENE,65,4.6,4.6,61,0.00,FEW,,0.00,643.0,WeatherDisplay:10.37,2013-04-24 08:57:00,
2013-04-24 11:02:00,62.6,49.4,30.33,NE,55,5.8,5.8,62,0.00,SCT,,0.00,606.0,WeatherDisplay:10.37,2013-04-24 09:02:00,
2013-04-24 11:07:00,63.2,50.4,30.32,SE,146,3.5,3.5,63,0.00,SCT,,0.00,696.0,WeatherDisplay:10.37,2013-04-24 09:07:00,
2013-04-24 11:12:00,64.8,50.1,30.32,SSE,168,6.0,6.0,59,0.00,FEW,,0.00,698.0,WeatherDisplay:10.37,2013-04-24 09:12:00,
2013-04-24 11:17:00,64.9,49.8,30.32,ESE,107,6.9,0.0,58,0.00,FEW,,0.00,696.0,WeatherDisplay:10.37,2013-04-24 09:17:00,
2013-04-24 11:22:00,65.2,49.6,30.32,SE,126,5.8,5.8,57,0.00,FEW,,0.00,657.0,WeatherDisplay:10.37,2013-04-24 09:22:00,
2013-04-24 11:27:00,65.7,50.0,30.32,SSW,193,4.6,4.6,57,0.00,FEW,,0.00,747.0,WeatherDisplay:10.37,2013-04-24 09:27:00,
2013-04-24 11:32:00,65.3,47.7,30.32,SE,134,2.0,2.0,53,0.00,FEW,,0.00,737.0,WeatherDisplay:10.37,2013-04-24 09:32:00,
2013-04-24 11:37:00,65.6,49.5,30.32,ESE,123,6.0,6.0,56,0.00,FEW,,0.00,705.0,WeatherDisplay:10.37,2013-04-24 09:37:00,
2013-04-24 11:42:00,65.9,46.7,30.32,SE,126,2.0,2.0,50,0.00,FEW,,0.00,756.0,WeatherDisplay:10.37,2013-04-24 09:42:00,
2013-04-24 11:47:00,66.5,49.8,30.32,SE,126,3.5,3.5,55,0.00,FEW,,0.00,714.0,WeatherDisplay:10.37,2013-04-24 09:47:00,
2013-04-24 11:52:00,66.8,49.6,30.31,ESE,113,6.0,6.0,54,0.00,FEW,,0.00,770.0,WeatherDisplay:10.37,2013-04-24 09:52:00,
2013-04-24 11:57:00,67.3,48.5,30.31,SE,126,8.0,8.0,51,0.00,FEW,,0.00,744.0,WeatherDisplay:10.37,2013-04-24 09:57:00,
2013-04-24 12:02:00,66.6,46.3,30.31,SE,132,3.5,3.5,48,0.00,FEW,,0.00,714.0,WeatherDisplay:10.37,2013-04-24 10:02:00,
2013-04-24 12:07:00,66.7,48.5,30.31,SE,130,5.0,5.0,52,0.00,FEW,,0.00,749.0,WeatherDisplay:10.37,2013-04-24 10:07:00,
2013-04-24 12:12:00,67.1,47.8,30.31,SE,128,5.8,5.8,50,0.00,FEW,,0.00,777.0,WeatherDisplay:10.37,2013-04-24 10:12:00,
2013-04-24 12:17:00,67.5,47.7,30.30,SE,132,4.0,4.0,49,0.00,SCT,,0.00,749.0,WeatherDisplay:10.37,2013-04-24 10:17:00,
2013-04-24 12:22:00,67.7,47.3,30.30,SE,136,6.0,6.0,48,0.00,FEW,,0.00,756.0,WeatherDisplay:10.37,2013-04-24 10:22:00,
2013-04-24 12:27:00,67.0,47.7,30.30,SE,124,1.2,1.2,50,0.00,FEW,,0.00,795.0,WeatherDisplay:10.37,2013-04-24 10:27:00,
2013-04-24 12:32:00,67.7,46.7,30.30,North,355,4.0,4.0,47,0.00,FEW,,0.00,765.0,WeatherDisplay:10.37,2013-04-24 10:32:00,
2013-04-24 12:37:00,68.9,51.1,30.30,West,275,6.9,6.9,53,0.00,FEW,,0.00,747.0,WeatherDisplay:10.37,2013-04-24 10:37:00,
2013-04-24 12:42:00,69.4,49.9,30.30,West,274,5.8,5.8,50,0.00,FEW,,0.00,758.0,WeatherDisplay:10.37,2013-04-24 10:42:00,
2013-04-24 12:47:00,69.8,49.8,30.30,SW,225,7.0,7.0,49,0.00,FEW,,0.00,786.0,WeatherDisplay:10.37,2013-04-24 10:47:00,
2013-04-24 12:52:00,70.3,50.2,30.29,WSW,242,8.1,8.1,49,0.00,FEW,,0.00,833.0,WeatherDisplay:10.37,2013-04-24 10:52:00,
2013-04-24 12:57:00,69.9,47.6,30.30,SW,220,3.5,3.5,45,0.00,FEW,,0.00,828.0,WeatherDisplay:10.37,2013-04-24 10:57:00,
2013-04-24 13:02:00,70.7,50.6,30.30,West,267,5.8,5.8,49,0.00,FEW,,0.00,793.0,WeatherDisplay:10.37,2013-04-24 11:02:00,
2013-04-24 13:07:00,71.0,51.4,30.30,SSW,198,11.0,11.0,50,0.00,FEW,,0.00,714.0,WeatherDisplay:10.37,2013-04-24 11:07:00,
2013-04-24 13:12:00,70.8,48.4,30.29,SSW,198,7.0,7.0,45,0.00,FEW,,0.00,805.0,WeatherDisplay:10.37,2013-04-24 11:12:00,
2013-04-24 13:17:00,70.9,47.3,30.29,South,191,5.8,5.8,43,0.00,FEW,,0.00,793.0,WeatherDisplay:10.37,2013-04-24 11:17:00,
2013-04-24 13:22:00,70.6,50.0,30.29,SSW,201,8.1,8.1,48,0.00,FEW,,0.00,814.0,WeatherDisplay:10.37,2013-04-24 11:22:00,
2013-04-24 13:27:00,71.2,51.6,30.29,WSW,257,8.1,8.1,50,0.00,FEW,,0.00,824.0,WeatherDisplay:10.37,2013-04-24 11:27:00,
2013-04-24 13:32:00,71.6,47.3,30.29,SSW,194,6.0,6.0,42,0.00,FEW,,0.00,821.0,WeatherDisplay:10.37,2013-04-24 11:32:00,
2013-04-24 13:37:00,71.9,51.1,30.29,SW,229,7.0,7.0,48,0.00,FEW,,0.00,912.0,WeatherDisplay:10.37,2013-04-24 11:37:00,
2013-04-24 13:42:00,71.5,49.0,30.29,West,270,5.8,5.8,45,0.00,SCT,,0.00,526.0,WeatherDisplay:10.37,2013-04-24 11:42:00,
2013-04-24 13:47:00,71.4,50.1,30.29,NW,312,6.9,6.9,47,0.00,FEW,,0.00,770.0,WeatherDisplay:10.37,2013-04-24 11:47:00,
2013-04-24 13:52:00,71.4,48.9,30.28,NNW,336,4.6,4.6,45,0.00,FEW,,0.00,823.0,WeatherDisplay:10.37,2013-04-24 11:52:00,
2013-04-24 13:57:00,71.3,50.0,30.28,NNW,338,6.9,6.9,47,0.00,FEW,,0.00,835.0,WeatherDisplay:10.37,2013-04-24 11:57:00,
2013-04-24 14:02:00,71.7,48.6,30.28,West,266,6.9,6.9,44,0.00,FEW,,0.00,814.0,WeatherDisplay:10.37,2013-04-24 12:02:00,
2013-04-24 14:07:00,72.0,50.7,30.28,NW,309,6.9,6.9,47,0.00,SCT,,0.00,227.0,WeatherDisplay:10.37,2013-04-24 12:07:00,
2013-04-24 14:12:00,70.9,50.2,30.28,WNW,289,10.4,10.4,48,0.00,OVC,,0.00,809.0,WeatherDisplay:10.37,2013-04-24 12:12:00,
2013-04-24 14:17:00,70.3,46.7,30.28,NW,309,3.5,3.5,43,0.00,FEW,,0.00,817.0,WeatherDisplay:10.37,2013-04-24 12:17:00,
2013-04-24 14:22:00,70.7,48.3,30.28,SSW,196,3.5,3.5,45,0.00,FEW,,0.00,800.0,WeatherDisplay:10.37,2013-04-24 12:22:00,
2013-04-24 14:27:00,70.9,49.1,30.28,West,266,4.6,4.6,46,0.00,CLR,,0.00,860.0,WeatherDisplay:10.37,2013-04-24 12:27:00,
2013-04-24 14:32:00,71.1,49.8,30.28,WNW,286,6.0,6.0,47,0.00,OVC,,0.00,276.0,WeatherDisplay:10.37,2013-04-24 12:32:00,
2013-04-24 14:37:00,71.5,49.6,30.27,North,350,6.0,6.0,46,0.00,CLR,,0.00,786.0,WeatherDisplay:10.37,2013-04-24 12:37:00,
2013-04-24 14:42:00,71.2,49.9,30.27,NNE,17,5.0,5.0,47,0.00,CLR,,0.00,805.0,WeatherDisplay:10.37,2013-04-24 12:42:00,
2013-04-24 14:47:00,70.7,48.9,30.27,NE,37,6.0,6.0,46,0.00,OVC,,0.00,793.0,WeatherDisplay:10.37,2013-04-24 12:47:00,
2013-04-24 14:52:00,70.5,49.9,30.27,NNE,22,4.6,4.6,48,0.00,FEW,,0.00,759.0,WeatherDisplay:10.37,2013-04-24 12:52:00,
2013-04-24 14:57:00,71.3,50.6,30.27,WNW,284,8.1,8.1,48,0.00,CLR,,0.00,777.0,WeatherDisplay:10.37,2013-04-24 12:57:00,
2013-04-24 15:02:00,72.1,52.4,30.27,West,259,5.8,5.8,50,0.00,CLR,,0.00,766.0,WeatherDisplay:10.37,2013-04-24 13:02:00,
2013-04-24 15:07:00,72.7,51.3,30.27,NW,304,6.0,6.0,47,0.00,FEW,,0.00,621.0,WeatherDisplay:10.37,2013-04-24 13:07:00,
2013-04-24 15:12:00,72.9,50.3,30.27,WNW,294,3.5,3.5,45,0.00,FEW,,0.00,744.0,WeatherDisplay:10.37,2013-04-24 13:12:00,
2013-04-24 15:17:00,72.5,49.9,30.26,WNW,296,2.0,2.0,45,0.00,OVC,,0.00,207.0,WeatherDisplay:10.37,2013-04-24 13:17:00,
2013-04-24 15:22:00,71.7,47.4,30.26,West,277,3.5,3.5,42,0.00,OVC,,0.00,218.0,WeatherDisplay:10.37,2013-04-24 13:22:00,
2013-04-24 15:27:00,71.7,48.0,30.26,West,277,3.5,3.5,43,0.00,FEW,,0.00,622.0,WeatherDisplay:10.37,2013-04-24 13:27:00,
2013-04-24 15:32:00,72.1,47.7,30.26,South,175,5.8,5.8,42,0.00,FEW,,0.00,628.0,WeatherDisplay:10.37,2013-04-24 13:32:00,
2013-04-24 15:37:00,72.5,48.7,30.26,South,188,3.5,3.5,43,0.00,FEW,,0.00,592.0,WeatherDisplay:10.37,2013-04-24 13:37:00,
2013-04-24 15:42:00,72.6,49.4,30.25,SSW,211,3.0,3.0,44,0.00,FEW,,0.00,571.0,WeatherDisplay:10.37,2013-04-24 13:42:00,
2013-04-24 15:47:00,72.4,48.0,30.25,SSW,211,3.5,3.5,42,0.00,FEW,,0.00,561.0,WeatherDisplay:10.37,2013-04-24 13:47:00,
2013-04-24 15:52:00,72.8,50.2,30.25,SSW,211,4.0,4.0,45,0.00,FEW,,0.00,577.0,WeatherDisplay:10.37,2013-04-24 13:52:00,
2013-04-24 15:57:00,73.4,49.5,30.25,SW,224,5.0,5.0,43,0.00,FEW,,0.00,566.0,WeatherDisplay:10.37,2013-04-24 13:57:00,
2013-04-24 16:02:00,73.0,47.2,30.25,South,189,4.6,4.6,40,0.00,FEW,,0.00,557.0,WeatherDisplay:10.37,2013-04-24 14:02:00,
2013-04-24 16:07:00,72.9,48.5,30.25,South,189,3.0,3.0,42,0.00,FEW,,0.00,557.0,WeatherDisplay:10.37,2013-04-24 14:07:00,
2013-04-24 16:12:00,73.4,52.5,30.25,West,259,4.6,4.6,48,0.00,FEW,,0.00,524.0,WeatherDisplay:10.37,2013-04-24 14:12:00,
2013-04-24 16:17:00,74.0,53.1,30.24,WSW,248,4.6,4.6,48,0.00,FEW,,0.00,520.0,WeatherDisplay:10.37,2013-04-24 14:17:00,
2013-04-24 16:22:00,73.9,50.6,30.24,WSW,242,5.0,5.0,44,0.00,FEW,,0.00,506.0,WeatherDisplay:10.37,2013-04-24 14:22:00,
2013-04-24 16:27:00,73.5,50.9,30.24,WSW,255,3.5,3.5,45,0.00,FEW,,0.00,489.0,WeatherDisplay:10.37,2013-04-24 14:27:00,
2013-04-24 16:32:00,74.0,51.3,30.24,WSW,250,3.5,3.5,45,0.00,FEW,,0.00,490.0,WeatherDisplay:10.37,2013-04-24 14:32:00,
2013-04-24 16:37:00,73.9,48.1,30.24,SW,223,8.1,8.1,40,0.00,FEW,,0.00,457.0,WeatherDisplay:10.37,2013-04-24 14:37:00,
2013-04-24 16:42:00,73.9,51.8,30.24,West,259,6.0,6.0,46,0.00,SCT,,0.00,422.0,WeatherDisplay:10.37,2013-04-24 14:42:00,
2013-04-24 16:47:00,73.4,48.3,30.23,SW,236,5.8,5.8,41,0.00,SCT,,0.00,408.0,WeatherDisplay:10.37,2013-04-24 14:47:00,
2013-04-24 16:52:00,73.2,50.0,30.23,SW,232,6.0,6.0,44,0.00,SCT,,0.00,436.0,WeatherDisplay:10.37,2013-04-24 14:52:00,
2013-04-24 16:57:00,73.0,49.2,30.23,SW,219,4.0,4.0,43,0.00,FEW,,0.00,392.0,WeatherDisplay:10.37,2013-04-24 14:57:00,
2013-04-24 17:02:00,73.1,51.1,30.23,SW,232,5.0,5.0,46,0.00,SCT,,0.00,397.0,WeatherDisplay:10.37,2013-04-24 15:02:00,
2013-04-24 17:09:00,72.9,47.8,30.23,SW,232,7.0,7.0,41,0.00,SCT,,0.00,390.0,WeatherDisplay:10.37,2013-04-24 15:09:00,
2013-04-24 17:14:00,73.2,47.4,30.23,SSW,200,3.5,3.5,40,0.00,SCT,,0.00,355.0,WeatherDisplay:10.37,2013-04-24 15:14:00,
2013-04-24 17:19:00,73.0,49.2,30.23,SW,217,5.0,5.0,43,0.00,SCT,,0.00,327.0,WeatherDisplay:10.37,2013-04-24 15:19:00,
2013-04-24 17:24:00,73.0,48.5,30.23,SW,226,6.9,6.9,42,0.00,SCT,,0.00,272.0,WeatherDisplay:10.37,2013-04-24 15:24:00,
2013-04-24 17:29:00,73.0,49.2,30.23,SSW,205,5.0,5.0,43,0.00,SCT,,0.00,308.0,WeatherDisplay:10.37,2013-04-24 15:29:00,
2013-04-24 17:34:00,72.8,49.0,30.22,SSW,204,8.1,8.1,43,0.00,SCT,,0.00,327.0,WeatherDisplay:10.37,2013-04-24 15:34:00,
2013-04-24 17:39:00,73.0,48.5,30.23,SSW,204,6.0,6.0,42,0.00,FEW,,0.00,309.0,WeatherDisplay:10.37,2013-04-24 15:39:00,
2013-04-24 17:44:00,73.1,49.9,30.22,WSW,239,4.6,4.6,44,0.00,SCT,,0.00,287.0,WeatherDisplay:10.37,2013-04-24 15:44:00,
2013-04-24 17:49:00,73.2,50.0,30.22,SW,231,5.8,5.8,44,0.00,SCT,,0.00,243.0,WeatherDisplay:10.37,2013-04-24 15:49:00,
2013-04-24 17:54:00,72.9,49.7,30.22,SSW,203,5.0,5.0,44,0.00,SCT,,0.00,243.0,WeatherDisplay:10.37,2013-04-24 15:54:00,
2013-04-24 17:59:00,72.7,48.9,30.22,SSW,196,6.9,6.9,43,0.00,SCT,,0.00,237.0,WeatherDisplay:10.37,2013-04-24 15:59:00,
2013-04-24 18:05:00,72.5,51.1,30.22,South,186,6.9,6.9,47,0.00,SCT,,0.00,216.0,WeatherDisplay:10.37,2013-04-24 16:05:00,
2013-04-24 18:10:00,72.3,50.9,30.22,SSW,205,5.0,5.0,47,0.00,SCT,,0.00,225.0,WeatherDisplay:10.37,2013-04-24 16:10:00,
2013-04-24 18:15:00,72.3,49.2,30.22,SSW,212,8.1,8.1,44,0.00,SCT,,0.00,206.0,WeatherDisplay:10.37,2013-04-24 16:15:00,
2013-04-24 18:20:00,72.3,49.2,30.22,SSW,204,4.6,4.6,44,0.00,SCT,,0.00,158.0,WeatherDisplay:10.37,2013-04-24 16:20:00,
2013-04-24 18:25:00,72.0,50.1,30.22,SSW,201,4.0,4.0,46,0.00,SCT,,0.00,165.0,WeatherDisplay:10.37,2013-04-24 16:25:00,
2013-04-24 18:30:00,72.1,50.8,30.22,SSW,201,3.0,3.0,47,0.00,SCT,,0.00,174.0,WeatherDisplay:10.37,2013-04-24 16:30:00,
2013-04-24 18:35:00,71.9,50.0,30.22,SSW,210,5.0,5.0,46,0.00,SCT,,0.00,146.0,WeatherDisplay:10.37,2013-04-24 16:35:00,
2013-04-24 18:40:00,71.2,49.9,30.21,SSW,201,9.2,9.2,47,0.00,SCT,,0.00,141.0,WeatherDisplay:10.37,2013-04-24 16:40:00,
2013-04-24 18:45:00,70.5,49.9,30.21,SSW,196,5.8,5.8,48,0.00,SCT,,0.00,130.0,WeatherDisplay:10.37,2013-04-24 16:45:00,
2013-04-24 18:50:00,69.9,49.9,30.21,SW,215,5.0,5.0,49,0.00,SCT,,0.00,114.0,WeatherDisplay:10.37,2013-04-24 16:50:00,
2013-04-24 18:55:00,69.6,50.1,30.21,SW,214,5.8,5.8,50,0.00,OVC,,0.00,72.0,WeatherDisplay:10.37,2013-04-24 16:55:00,
2013-04-24 19:00:00,69.3,49.3,30.21,SSW,203,4.6,4.6,49,0.00,BKN,,0.00,67.0,WeatherDisplay:10.37,2013-04-24 17:00:00,
2013-04-24 19:05:00,69.1,50.2,30.21,SSW,202,3.5,3.5,51,0.00,BKN,,0.00,62.0,WeatherDisplay:10.37,2013-04-24 17:05:00,
2013-04-24 19:10:00,68.8,49.9,30.21,SSW,202,3.5,3.5,51,0.00,BKN,,0.00,56.0,WeatherDisplay:10.37,2013-04-24 17:10:00,
2013-04-24 19:15:00,68.5,50.2,30.21,SSW,202,3.5,3.5,52,0.00,BKN,,0.00,51.0,WeatherDisplay:10.37,2013-04-24 17:15:00,
2013-04-24 19:20:00,68.2,50.4,30.21,South,186,3.5,3.5,53,0.00,BKN,,0.00,44.0,WeatherDisplay:10.37,2013-04-24 17:20:00,
2013-04-24 19:25:00,67.7,49.9,30.21,South,190,3.5,3.5,53,0.00,BKN,,0.00,37.0,WeatherDisplay:10.37,2013-04-24 17:25:00,
2013-04-24 19:30:00,67.3,49.6,30.21,South,190,4.0,4.0,53,0.00,BKN,,0.00,32.0,WeatherDisplay:10.37,2013-04-24 17:30:00,
2013-04-24 19:35:00,66.8,49.6,30.21,South,188,4.0,4.0,54,0.00,OVC,,0.00,26.0,WeatherDisplay:10.37,2013-04-24 17:35:00,
2013-04-24 19:40:00,66.4,49.7,30.21,South,188,3.5,3.5,55,0.00,OVC,,0.00,21.0,WeatherDisplay:10.37,2013-04-24 17:40:00,
2013-04-24 19:45:00,65.7,49.6,30.21,South,188,3.5,3.5,56,0.00,OVC,,0.00,18.0,WeatherDisplay:10.37,2013-04-24 17:45:00,
2013-04-24 19:50:00,65.0,49.9,30.21,South,188,3.5,3.5,58,0.00,BKN,,0.00,16.0,WeatherDisplay:10.37,2013-04-24 17:50:00,
2013-04-24 19:55:00,64.2,50.0,30.21,South,188,4.0,4.0,60,0.00,BKN,,0.00,12.0,WeatherDisplay:10.37,2013-04-24 17:55:00,
2013-04-24 20:00:00,63.4,49.3,30.21,South,188,5.0,5.0,60,0.00,BKN,,0.00,9.0,WeatherDisplay:10.37,2013-04-24 18:00:00,
2013-04-24 20:05:00,62.9,49.2,30.21,South,188,4.0,4.0,61,0.00,SCT,,0.00,7.0,WeatherDisplay:10.37,2013-04-24 18:05:00,
2013-04-24 20:10:00,61.9,49.2,30.21,South,188,3.5,3.5,63,0.00,OVC,,0.00,5.0,WeatherDisplay:10.37,2013-04-24 18:10:00,
2013-04-24 20:15:00,61.3,48.6,30.21,South,188,4.6,4.6,63,0.00,OVC,,0.00,0.0,WeatherDisplay:10.37,2013-04-24 18:15:00,
2013-04-24 20:20:00,61.2,48.5,30.21,South,188,4.0,4.0,63,0.00,OVC,,0.00,0.0,WeatherDisplay:10.37,2013-04-24 18:20:00,
2013-04-24 20:25:00,61.1,48.4,30.21,South,188,3.5,3.5,63,0.00,OVC,,0.00,0.0,WeatherDisplay:10.37,2013-04-24 18:25:00,
2013-04-24 20:30:00,60.8,48.5,30.22,South,188,3.5,3.5,64,0.00,OVC,,0.00,0.0,WeatherDisplay:10.37,2013-04-24 18:30:00,
2013-04-24 20:35:00,60.4,48.6,30.22,South,188,4.0,4.0,65,0.00,OVC,,0.00,0.0,WeatherDisplay:10.37,2013-04-24 18:35:00,
2013-04-24 20:40:00,60.1,48.3,30.22,South,191,3.5,3.5,65,0.00,CLR,,0.00,0.0,WeatherDisplay:10.37,2013-04-24 18:40:00,
2013-04-24 20:45:00,59.7,48.3,30.22,South,191,3.5,3.5,66,0.00,CLR,,0.00,0.0,WeatherDisplay:10.37,2013-04-24 18:45:00,
2013-04-24 20:50:00,59.3,47.9,30.22,South,191,3.5,3.5,66,0.00,CLR,,0.00,0.0,WeatherDisplay:10.37,2013-04-24 18:50:00,
2013-04-24 20:55:00,58.9,48.0,30.22,South,191,3.5,3.5,67,0.00,CLR,,0.00,0.0,WeatherDisplay:10.37,2013-04-24 18:55:00,
2013-04-24 21:00:00,58.5,47.6,30.22,South,191,3.5,3.5,67,0.00,CLR,,0.00,0.0,WeatherDisplay:10.37,2013-04-24 19:00:00,
2013-04-24 21:05:00,58.1,47.6,30.22,SSW,200,5.0,5.0,68,0.00,CLR,,0.00,0.0,WeatherDisplay:10.37,2013-04-24 19:05:00,
2013-04-24 21:10:00,57.8,47.3,30.23,SSW,205,3.5,3.5,68,0.00,CLR,,0.00,0.0,WeatherDisplay:10.37,2013-04-24 19:10:00,
2013-04-24 21:15:00,57.6,47.1,30.23,SSW,205,3.5,3.5,68,0.00,CLR,,0.00,0.0,WeatherDisplay:10.37,2013-04-24 19:15:00,
2013-04-24 21:20:00,57.4,47.3,30.23,SSW,205,3.5,3.5,69,0.00,CLR,,0.00,0.0,WeatherDisplay:10.37,2013-04-24 19:20:00,
2013-04-24 21:25:00,57.1,47.0,30.23,SSW,205,4.0,4.0,69,0.00,CLR,,0.00,0.0,WeatherDisplay:10.37,2013-04-24 19:25:00,
2013-04-24 21:30:00,56.8,46.7,30.23,SSW,205,4.0,4.0,69,0.00,CLR,,0.00,0.0,WeatherDisplay:10.37,2013-04-24 19:30:00,
2013-04-24 21:35:00,56.8,47.1,30.23,SW,214,6.0,6.0,70,0.00,CLR,,0.00,0.0,WeatherDisplay:10.37,2013-04-24 19:35:00,
2013-04-24 21:40:00,56.6,46.9,30.23,SSW,207,3.5,3.5,70,0.00,CLR,,0.00,0.0,WeatherDisplay:10.37,2013-04-24 19:40:00,
2013-04-24 21:45:00,56.5,46.8,30.23,SSW,207,4.0,4.0,70,0.00,CLR,,0.00,0.0,WeatherDisplay:10.37,2013-04-24 19:45:00,
2013-04-24 21:50:00,56.3,46.6,30.23,SSW,203,5.0,5.0,70,0.00,CLR,,0.00,0.0,WeatherDisplay:10.37,2013-04-24 19:50:00,
2013-04-24 21:55:00,56.1,46.4,30.23,SSW,203,4.0,4.0,70,0.00,CLR,,0.00,0.0,WeatherDisplay:10.37,2013-04-24 19:55:00,
2013-04-24 22:00:00,56.0,46.4,30.23,SSW,208,5.0,5.0,70,0.00,CLR,,0.00,0.0,WeatherDisplay:10.37,2013-04-24 20:00:00,
2013-04-24 22:05:00,56.1,46.4,30.23,SSW,209,6.0,6.0,70,0.00,CLR,,0.00,0.0,WeatherDisplay:10.37,2013-04-24 20:05:00,
2013-04-24 22:10:00,56.2,46.5,30.23,SSW,206,3.5,3.5,70,0.00,CLR,,0.00,0.0,WeatherDisplay:10.37,2013-04-24 20:10:00,
2013-04-24 22:15:00,56.2,46.5,30.23,SSW,207,3.5,3.5,70,0.00,CLR,,0.00,0.0,WeatherDisplay:10.37,2013-04-24 20:15:00,
2013-04-24 22:20:00,56.1,46.4,30.23,SSW,208,5.0,5.0,70,0.00,CLR,,0.00,0.0,WeatherDisplay:10.37,2013-04-24 20:20:00,
2013-04-24 22:25:00,55.9,46.6,30.23,SSW,210,5.0,5.0,71,0.00,CLR,,0.00,0.0,WeatherDisplay:10.37,2013-04-24 20:25:00,
2013-04-24 22:30:00,55.7,46.4,30.23,SSW,208,4.6,4.6,71,0.00,CLR,,0.00,0.0,WeatherDisplay:10.37,2013-04-24 20:30:00,
2013-04-24 22:35:00,55.5,46.6,30.23,SSW,204,5.8,5.8,72,0.00,CLR,,0.00,0.0,WeatherDisplay:10.37,2013-04-24 20:35:00,
2013-04-24 22:40:00,55.4,46.5,30.23,SSW,212,4.6,4.6,72,0.00,CLR,,0.00,0.0,WeatherDisplay:10.37,2013-04-24 20:40:00,
2013-04-24 22:45:00,55.2,46.3,30.23,SSW,211,4.6,4.6,72,0.00,CLR,,0.00,0.0,WeatherDisplay:10.37,2013-04-24 20:45:00,
2013-04-24 22:50:00,55.1,46.2,30.23,SSW,205,6.0,6.0,72,0.00,CLR,,0.00,0.0,WeatherDisplay:10.37,2013-04-24 20:50:00,
2013-04-24 22:55:00,55.0,46.1,30.23,SSW,213,6.9,6.9,72,0.00,CLR,,0.00,0.0,WeatherDisplay:10.37,2013-04-24 20:55:00,
2013-04-24 23:01:00,55.3,46.1,30.23,SSW,205,5.8,5.8,71,0.00,CLR,,0.00,0.0,WeatherDisplay:10.37,2013-04-24 21:01:00,
2013-04-24 23:06:00,55.6,46.3,30.23,SSW,198,8.1,8.1,71,0.00,CLR,,0.00,0.0,WeatherDisplay:10.37,2013-04-24 21:06:00,
2013-04-24 23:11:00,55.7,46.1,30.23,SW,218,6.9,6.9,70,0.00,CLR,,0.00,0.0,WeatherDisplay:10.37,2013-04-24 21:11:00,
2013-04-24 23:16:00,55.7,46.4,30.23,WSW,237,5.8,5.8,71,0.00,CLR,,0.00,0.0,WeatherDisplay:10.37,2013-04-24 21:16:00,
2013-04-24 23:21:00,55.6,46.0,30.23,SW,227,3.5,3.5,70,0.00,CLR,,0.00,0.0,WeatherDisplay:10.37,2013-04-24 21:21:00,
2013-04-24 23:26:00,55.7,46.1,30.23,SSW,207,5.0,5.0,70,0.00,CLR,,0.00,0.0,WeatherDisplay:10.37,2013-04-24 21:26:00,
2013-04-24 23:31:00,55.6,46.0,30.23,SSW,211,4.6,4.6,70,0.00,CLR,,0.00,0.0,WeatherDisplay:10.37,2013-04-24 21:31:00,
2013-04-24 23:36:00,55.5,46.2,30.24,SW,217,6.0,6.0,71,0.00,CLR,,0.00,0.0,WeatherDisplay:10.37,2013-04-24 21:36:00,
2013-04-24 23:41:00,55.4,46.2,30.24,SSW,213,5.8,5.8,71,0.00,CLR,,0.00,0.0,WeatherDisplay:10.37,2013-04-24 21:41:00,
2013-04-24 23:46:00,55.2,46.0,30.24,SSW,207,6.0,6.0,71,0.00,CLR,,0.00,0.0,WeatherDisplay:10.37,2013-04-24 21:46:00,
2013-04-24 23:51:00,55.1,46.2,30.24,SSW,210,5.8,5.8,72,0.00,CLR,,0.00,0.0,WeatherDisplay:10.37,2013-04-24 21:51:00,
2013-04-24 23:56:00,55.0,46.1,30.24,SSW,209,6.0,6.0,72,0.00,CLR,,0.00,0.0,WeatherDisplay:10.37,2013-04-24 21:56:00,